Mosinee, WI

4:58 AM CDT on July 30, 2016 (GMT -0500)
Central Wisconsin

Weather History for KCWA - June, 2013

Change the Weather History Date:

Saturday, June 22, 2013

  Actual Average Record
Temperature  
Mean Temperature 68 °F -  
Max Temperature 78 °F 74 °F 87 °F (1997)
Min Temperature 59 °F 53 °F 44 °F (2001)
Cooling Degree Days 4    
Growing Degree Days 18 (Base 50)    
Moisture  
Dew Point 63 °F    
Average Humidity 95    
Maximum Humidity 100    
Minimum Humidity 69    
Precipitation  
Precipitation 0.05 in - - ()
Sea Level Pressure  
Sea Level Pressure 30.01 in    
Wind  
Wind Speed 6 mph (East)    
Max Wind Speed 21 mph    
Max Gust Speed 28 mph    
Visibility 7 miles    
Events Rain , Thunderstorm    
Averages and records for this station are not official NWS values.
T = Trace of Precipitation, MM = Missing Value Source: NWS Daily Summary

Daily Weather History Graph

Daily Weather History Graph

Search for Another Location

Airport or City:

Trip Planner

Search our weather history database for the weather conditions in past years. The results will help you decide how hot, cold, wet, or windy it might be!

Date:

Astronomy

Jun. 22, 2013 Rise Set
Actual Time 5:13 AM CDT 8:48 PM CDT
Civil Twilight 4:35 AM CDT 9:25 PM CDT
Nautical Twilight 3:46 AM CDT 10:14 PM CDT
Astronomical Twilight 2:41 AM CDT 11:19 PM CDT
Moon 8:00 PM CDT (6/22) 4:28 AM CDT (6/22)
Length of Visible Light 16h 49m
Length of Day
15h 35m
Waxing Gibbous, 99% of the Moon is Illuminated
Jun 22
Waxing Gibbous
Jun 23
Full
Jun 29
Last Quarter
Jul 8
New
Jul 15
First Quarter

Hourly Weather History & Observations

Time (CDT) Temp. Dew Point Humidity Pressure Visibility Wind Dir Wind Speed Gust Speed Precip Events Conditions
12:15 AM 64.4 °F 62.6 °F 94% 30.06 in 7.0 mi NW 6.9 mph - N/A   Clear
12:35 AM 64.4 °F 62.6 °F 94% 30.01 in 10.0 mi North 5.8 mph - 0.01 in   Clear
12:55 AM 62.6 °F 62.6 °F 100% 29.96 in 10.0 mi NE 6.9 mph - 0.01 in   Clear
1:15 AM 62.6 °F 62.6 °F 100% 29.93 in 10.0 mi NE 13.8 mph - N/A   Clear
1:35 AM 62.6 °F 62.6 °F 100% 29.93 in 10.0 mi East 10.4 mph - 0.01 in   Clear
1:55 AM 60.8 °F 60.8 °F 100% 29.97 in 10.0 mi Calm Calm - 0.01 in   Clear
2:15 AM 60.8 °F 60.8 °F 100% 29.97 in 10.0 mi East 5.8 mph - N/A   Clear
2:35 AM 60.8 °F 60.8 °F 100% 29.99 in 10.0 mi ESE 4.6 mph - N/A   Clear
2:55 AM 60.8 °F 60.8 °F 100% 30.02 in 7.0 mi Calm Calm - N/A   Scattered Clouds
3:15 AM 60.8 °F 60.8 °F 100% 30.03 in 10.0 mi Calm Calm - 0.01 in   Mostly Cloudy
3:35 AM 60.8 °F 60.8 °F 100% 30.04 in 7.0 mi East 6.9 mph - 0.01 in   Overcast
3:55 AM 60.8 °F 60.8 °F 100% 30.04 in 10.0 mi East 5.8 mph - 0.01 in   Overcast
4:15 AM 60.8 °F 60.8 °F 100% 30.04 in 7.0 mi Calm Calm - N/A   Scattered Clouds
4:35 AM 60.8 °F 60.8 °F 100% 30.05 in 10.0 mi Calm Calm - N/A   Clear
4:55 AM 59.0 °F 59.0 °F 100% 30.06 in 5.0 mi Calm Calm - N/A   Clear
5:15 AM 60.8 °F 60.8 °F 100% 30.06 in 10.0 mi Calm Calm - 0.01 in Thunderstorm Clear
5:35 AM 60.8 °F 60.8 °F 100% 30.07 in 7.0 mi NNE 3.5 mph - 0.01 in   Clear
5:45 AM 60.8 °F 60.8 °F 100% 30.06 in 4.0 mi ENE 5.8 mph - N/A   Scattered Clouds
7:55 AM 60.8 °F 60.8 °F 100% 30.05 in 5.0 mi ENE 12.7 mph - N/A Rain Light Rain
8:45 AM 62.6 °F 62.6 °F 100% 30.07 in 5.0 mi SE 5.8 mph - N/A Rain Light Rain
9:50 AM 62.6 °F 62.6 °F 100% 29.98 in 5.0 mi ESE 11.5 mph 21.9 mph N/A Rain Light Rain
10:45 AM 64.4 °F 64.4 °F 100% 29.99 in 5.0 mi ESE 4.6 mph - N/A   Overcast
11:50 AM 69.8 °F 68.0 °F 94% 30.00 in 7.0 mi Calm Calm - N/A   Mostly Cloudy
12:45 PM 73.4 °F 66.2 °F 78% 30.01 in 7.0 mi Calm Calm - N/A   Scattered Clouds
1:45 PM 75.2 °F 66.2 °F 73% 30.02 in 10.0 mi Calm Calm - N/A   Scattered Clouds
2:45 PM 77.0 °F 66.2 °F 69% 30.01 in 10.0 mi SE 8.1 mph - N/A   Scattered Clouds
3:45 PM 78.8 °F 68.0 °F 69% 30.01 in 10.0 mi ESE 6.9 mph - N/A   Scattered Clouds
4:45 PM 73.4 °F 69.8 °F 88% 29.99 in 10.0 mi East 12.7 mph - N/A   Mostly Cloudy
5:45 PM 71.6 °F 68.0 °F 88% 30.01 in 5.0 mi ESE 10.4 mph - N/A   Mostly Cloudy
6:15 PM 69.8 °F 66.2 °F 88% 30.00 in 5.0 mi East 11.5 mph - N/A   Mostly Cloudy
6:45 PM 69.8 °F 66.2 °F 88% 29.99 in 5.0 mi ESE 10.4 mph 17.3 mph N/A   Overcast
7:45 PM 68.0 °F 66.2 °F 94% 29.99 in 5.0 mi East 6.9 mph - N/A   Scattered Clouds
8:45 PM 66.2 °F 64.4 °F 94% 29.97 in 5.0 mi East 8.1 mph - N/A   Scattered Clouds
9:45 PM 66.2 °F 64.4 °F 94% 30.00 in 5.0 mi ESE 5.8 mph - N/A   Mostly Cloudy
10:15 PM 64.4 °F 64.4 °F 100% 30.01 in 5.0 mi East 4.6 mph - 0.01 in   Overcast
10:35 PM 64.4 °F 64.4 °F 100% 30.01 in 5.0 mi ESE 8.1 mph - 0.01 in Rain Light Rain
10:55 PM 64.4 °F 64.4 °F 100% 30.01 in 4.0 mi SE 5.8 mph - 0.01 in Rain Light Rain
11:15 PM 64.4 °F 64.4 °F 100% 29.99 in 3.0 mi ESE 9.2 mph - N/A Rain Rain
11:35 PM 64.4 °F 64.4 °F 100% 29.94 in 3.0 mi ESE 20.7 mph 27.6 mph N/A Rain Light Rain
11:55 PM 64.4 °F 64.4 °F 100% 29.90 in 7.0 mi SE 15.0 mph 24.2 mph N/A Rain Light Rain